• Processing (Info)

  • MPEC 2000-U15 : 2000 UJ1

    The following Minor Planet Electronic Circular may be linked-to from your own Web pages, but must not otherwise be redistributed electronically.

    A form allowing access to any MPEC is at the bottom of this page.


    Read MPEC 2000-U14 Read MPEC 2000-U16


    M.P.E.C. 2000-U15                                Issued 2000 Oct. 23, 16:32 UT
    
         The Minor Planet Electronic Circulars contain information on unusual
             minor planets and routine data on comets.  They are published
       on behalf of Commission 20 of the International Astronomical Union by the
              Minor Planet Center, Smithsonian Astrophysical Observatory,
                              Cambridge, MA 02138, U.S.A.
    
                 Prepared using the Tamkin Foundation Computer Network
    
                                  MPC@CFA.HARVARD.EDU
              URL http://cfa-www.harvard.edu/iau/mpc.html  ISSN 1523-6714
    
                                       2000 UJ1
    
    Observations:
         K00U01J* C2000 10 19.08020 18 22 28.65 +53 03 43.6          18.1        704
         K00U01J  C2000 10 19.09370 18 22 33.78 +53 03 16.7          19.1        704
         K00U01J  C2000 10 19.10720 18 22 38.85 +53 02 49.3          19.5        704
         K00U01J  C2000 10 19.12097 18 22 44.14 +53 02 22.5          19.0        704
         K00U01J  C2000 10 19.13449 18 22 49.30 +53 01 53.7          19.3        704
         K00U01J  C2000 10 19.95713 18 28 14.44 +52 33 43.4                      557
         K00U01J  C2000 10 19.96118 18 28 16.03 +52 33 35.0                      557
         K00U01J  C2000 10 19.96389 18 28 17.12 +52 33 29.2                      557
         K00U01J  C2000 10 20.06273 18 28 57.01 +52 30 15.3          18.4 V      734
         K00U01J  C2000 10 20.06646 18 28 58.48 +52 30 07.4          18.3 V      734
         K00U01J  C2000 10 20.07212 18 29 00.76 +52 29 55.2          18.4 V      734
         K00U01J  C2000 10 20.07646 18 29 02.39 +52 29 45.5          18.2 V      734
         K00U01J  C2000 10 20.71919 18 33 24.02 +52 06 13.7          18.0 R      046
         K00U01J  C2000 10 20.72023 18 33 24.43 +52 06 11.5                      046
         K00U01J  C2000 10 20.72103 18 33 24.66 +52 06 09.5                      046
         K00U01J  C2000 10 20.72185 18 33 25.14 +52 06 07.7                      046
         K00U01J  C2000 10 20.72263 18 33 25.32 +52 06 05.4                      046
         K00U01J  C2000 10 20.72350 18 33 25.68 +52 06 04.3                      046
         K00U01J  C2000 10 20.78530 18 33 50.56 +52 03 41.2                      557
         K00U01J  C2000 10 20.78653 18 33 51.10 +52 03 38.9                      557
         K00U01J  C2000 10 20.79396 18 33 54.13 +52 03 21.0                      557
         K00U01J  C2000 10 20.79642 18 33 55.14 +52 03 15.0                      557
         K00U01J  C2000 10 21.09486 18 35 58.25 +51 51 55.4          17.9        704
         K00U01J  C2000 10 21.09511 18 35 58.38 +51 51 54.1          18.1        704
         K00U01J  C2000 10 21.10884 18 36 04.00 +51 51 22.1          18.1        704
         K00U01J  C2000 10 21.11003 18 36 04.47 +51 51 19.1          18.1        704
         K00U01J  C2000 10 21.12255 18 36 09.60 +51 50 49.8          18.7        704
         K00U01J  C2000 10 21.14045 18 36 16.76 +51 50 06.4          19.4        704
         K00U01J  C2000 10 21.15538 18 36 22.98 +51 49 29.4          19.2        704
         K00U01J  C2000 10 21.70295 18 40 13.71 +51 27 33.3                      557
         K00U01J  C2000 10 21.70914 18 40 16.27 +51 27 19.0                      557
         K00U01J  C2000 10 21.71039 18 40 16.76 +51 27 15.6                      557
         K00U01J  C2000 10 21.72426 18 40 22.50 +51 26 42.2                      118
         K00U01J  C2000 10 21.72561 18 40 23.02 +51 26 38.3                      118
         K00U01J  C2000 10 21.73059 18 40 25.09 +51 26 26.1                      118
         K00U01J WC2000 10 22.70969 18 47 25.49 +50 44 22.9                      557
         K00U01J  C2000 10 22.71560 18 47 28.09 +50 44 06.5                      557
         K00U01J  C2000 10 22.71678 18 47 28.70 +50 44 02.5                      557
         K00U01J  C2000 10 22.71934 18 47 29.66 +50 43 55.0                      118
         K00U01J  C2000 10 22.72043 18 47 30.19 +50 43 53.3          18.7 R      046
         K00U01J  C2000 10 22.72140 18 47 30.66 +50 43 49.8                      046
         K00U01J  C2000 10 22.72221 18 47 30.95 +50 43 47.8                      046
         K00U01J  C2000 10 22.72336 18 47 31.36 +50 43 45.6                      046
         K00U01J  C2000 10 22.72416 18 47 31.75 +50 43 43.4          18.8 R      046
         K00U01J  C2000 10 22.72492 18 47 32.13 +50 43 41.9                      046
         K00U01J  C2000 10 22.72918 18 47 33.82 +50 43 28.9                      118
         K00U01J  C2000 10 22.73398 18 47 35.68 +50 43 15.0                      118
         K00U01J  C2000 10 22.76200 18 47 47.90 +50 41 59.7          17.9        106
         K00U01J  C2000 10 22.77935 18 47 55.36 +50 41 12.6          17.6        106
         K00U01J  C2000 10 22.79005 18 48 00.04 +50 40 44.6          17.8 R      587
         K00U01J  C2000 10 22.79380 18 48 01.62 +50 40 33.5                      587
         K00U01J  C2000 10 22.79455 18 48 01.85 +50 40 30.0          17.1        106
    
    Observer details:
    046 Klet.  Observers J. Ticha, M. Tichy, M. Kocer. 0.57-m f/5.2
        reflector + CCD.
    106 Crni Vrh.  Observer S. Maticic.  0.36-m f/6.7 Schmidt-Cassegrain + CCD.
    118 Modra.  Observers L. Kornos, P. Koleny.  0.6-m f/5.5 reflector + CCD.
    557 Ondrejov.  Observers L. Sarounova, P. Kusnirak.  0.65-m f/3.6
        reflector + CCD.
    587 Sormano.  Observers F. Manca, G. Ventre.  0.5-m reflector + CCD.
    704 Lincoln Laboratory ETS, New Mexico.  Observers M. Blythe, F. Shelly,
        M. Bezpalko, M. Elowitz, R. Huber, L. Manguso.  Measurers J. Stuart,
        R. Sayer, J. B. Evans, H. Viggh.  1.0-m f/2.15 reflector + CCD.
    734 Farpoint Observatory.  Observer G. Hug.  0.30-m Schmidt-Cassegrain + CCD.
    
    Orbital elements:
    2000 UJ1
    Epoch 2000 Oct. 3.0 TT = JDT 2451820.5                  Spahr
    M 345.63671              (2000.0)            P               Q
    n   0.54128967     Peri.  158.04294     +0.84706271     -0.16738550
    a   1.4911325      Node   223.69453     +0.30976209     +0.92673130
    e   0.2876063      Incl.   46.90500     +0.43189375     -0.33637953
    P   1.82           H   17.4           G   0.15
    From 52 observations 2000 Oct. 19-22.
    
    Ephemeris:
    2000 UJ1                 a,e,i = 1.49, 0.29, 47                  q = 1.0623
    Date    TT    R. A. (2000) Decl.     Delta      r     Elong.  Phase     V
    2000 10 13    17 46.85   +55 38.3    0.499    1.072    84.6    67.8    18.4
    2000 10 23    18 49.55   +50 31.2    0.390    1.064    89.3    69.2    17.9
    2000 11 02    20 11.86   +38 19.9    0.295    1.063    95.7    68.3    17.3
    2000 11 12    21 41.31   +14 22.2    0.251    1.069   101.6    65.1    16.8
    2000 11 22    22 58.76   -11 35.5    0.289    1.083   101.4    63.4    17.1
    2000 12 02    23 57.58   -26 56.2    0.385    1.103    97.2    62.5    17.8
    2000 12 12    00 41.61   -34 18.4    0.504    1.129    92.9    60.6    18.3
    2000 12 22    01 16.11   -37 44.7    0.627    1.160    89.3    58.0    18.8
    2001 01 01    01 45.05   -39 10.6    0.746    1.195    86.2    55.2    19.2
    2001 01 11    02 10.88   -39 28.7    0.858    1.232    83.7    52.5    19.5
    2001 01 21    02 35.08   -39 04.1    0.961    1.273    81.7    49.9    19.7
    2001 01 31    02 58.68   -38 10.2    1.054    1.314    80.1    47.6    19.9
    2001 02 10    03 22.28   -36 55.5    1.138    1.356    79.0    45.6    20.1
    2001 02 20    03 46.23   -35 25.1    1.213    1.398    78.1    43.8    20.2
    2001 03 02    04 10.79   -33 43.0    1.281    1.440    77.5    42.2    20.4
    2001 03 12    04 36.04   -31 52.7    1.344    1.482    77.1    40.8    20.5
    2001 03 22    05 02.00   -29 57.0    1.403    1.522    76.6    39.6    20.6
    2001 04 01    05 28.64   -27 59.0    1.461    1.561    76.2    38.4    20.7
    2001 04 11    05 55.82   -26 02.0    1.520    1.598    75.5    37.4    20.8
    
    Timothy B. Spahr             (C) Copyright 2000 MPC           M.P.E.C. 2000-U15
    

    Read MPEC 2000-U14 Read MPEC 2000-U16


    MPEC number:

    Enter an MPEC number in one of the following forms:

    • 1997-B01 (the full form)
    • J97B01 (the packed version of the full form)
    • B01 (the abbreviated form)